ELECTRON R/B

Last updated on Wed Mar 11 2026 00:02:10 GMT+0000 (Coordinated Universal Time)

1 68099U 26043B 26069.35387764 .03489833 78123-5 13547-2 0 9999 2 68099 42.0131 69.3460 0149893 297.4317 61.1370 16.01678362 693

Satellite not in orbit